Tracking 21612 objects as of 19-Oct-2020
HD Live streaming from Space Station
objects crossing your sky now

COSMOS 1275 DEB

Track COSMOS 1275 DEB now!
10-day predictions


NORAD ID: 39955
Int'l Code: 1981-053NX
Perigee: 915.6 km
Apogee: 1,077.4 km
Inclination: 83.4 °
Period: 104.9 minutes
Semi major axis: 7367 km
RCS: 0.0112 m2 (small)
Launch date: April 25, 1981
Source: Commonwealth of Independent States (former USSR) (CIS)
Launch site: PLESETSK MISSILE AND SPACE COMPLEX (PKMTR)

Note: This is SATELLITE DEBRIS
aabbcc
Your satellite tracking list
Your tracking list is empty




NASA's NSSDC Master Catalog

Two Line Element Set (TLE):
1 39955U 81053NR  20287.32760325 +.00000106 +00000-0 +93249-4 0  9993
2 39955 083.4190 148.8802 0109811 144.4802 216.3731 13.72848816805781
Source of the keplerian elements: AFSPC